Location: Newark
(13.6797°N, 8.5297°E)
Time: 15:27:37
(UTC+00:00)

LightSail 2 - Pass Details

Date: 14 December 2019
Orbit: 704 x 720 km, 24.0° (Epoch: 21 January)

Event Time Altitude Azimuth Distance (km) Brightness Sun altitude
Rises 19:13:45 0° 267° (W) 3,091 9.5 -31.1°
Reaches altitude 10° 19:16:58 10° 247° (WSW) 2,168 8.5 -31.8°
Maximum altitude 19:20:15 17° 207° (SSW) 1,731 7.5 -32.6°
Enters shadow 19:21:39 16° 187° (S) 1,815 7.5 -32.9°
